www.pogodaiklimat.ru

АРХИВ ПОГОДЫ в Паркерсбурге

Время (UTC), дата Ветер
(напр.,м/с)
 
Видим.   Явления Облачность Т
(С)
Тd
(С)
f
(%)
Тe
(С)
Тes
(С)
Комфортность

P
(гПа)

Po
(гПа)
Тmin
(С)
Tmax
(С)
R
(мм)
SD
(см)
03:53 18.09   16 км    ясно  +17.2  +15.6  90  +17  +17    1020.2  989.2         
04:53 18.09 СВ  16 км    ясно  +16.7  +15.0  90  +17  +17    1020.5  989.5  +16.7  +23.9     
05:53 18.09   16 км    ясно  +16.1  +14.4  90  +16  +16    1020.4  989.5         
06:53 18.09   16 км    ясно  +15.6  +13.3  86  +15  +15    1020.4  989.5         
07:53 18.09   16 км    ясно  +14.4  +13.3  93  +14  +14    1020.7  989.9         
08:53 18.09   16 км    ясно  +13.9  +12.8  93  +13  +13    1020.7  989.9         
10:53 18.09   16 км    ясно  +13.9  +12.8  93  +13  +13    1021.6  990.5  +13.3  +17.2     
11:53 18.09 В  16 км    ясно  +18.0  +14.0  77  +18  +19    1021.8  990.9         
12:53 18.09 В  16 км    ясно  +20.6  +12.8  61  +23  +24  комфорт  1021.8  990.9         
13:53 18.09 СВ  16 км    ясно  +23.3  +13.3  53  +26  +30  жарко  1021.7  990.9         
14:53 18.09 В  16 км    ясно  +25.6  +11.7  42  +27  +31  жарко  1021.7  990.9         
15:53 18.09 СВ  16 км    ясно  +26.7  +11.1  38  +28  +34  жарко  1021.6  990.9         
16:53 18.09 СВ  16 км    ясно  +27.8  +9.4  32  +28  +35  жарко  1021.5  990.5  +13.9  +28.3     
17:53 18.09 В  16 км    ясно  +28.9  +8.9  29  +29  +35  жарко  1021.1  990.2         
18:53 18.09 нст  16 км    ясно  +27.8  +7.8  28  +27  +36  жарко  1020.7  989.9         
19:53 18.09 В  16 км    ясно  +28.3  +7.8  27  +28  +31  жарко  1020.5  989.5         
20:53 18.09 СВ  16 км    ясно  +27.8  +8.9  30  +28  +31  жарко  1020.3  989.5         
21:53 18.09 СВ  16 км    ясно  +25.6  +8.3  33  +26  +27  жарко  1020.8  989.9         
22:53 18.09 СВ  16 км    ясно  +22.2  +8.9  43  +24  +24  комфорт  1020.9  989.9  +22.2  +28.9     
23:53 18.09 СВ  16 км    ясно  +20.6  +9.4  49  +22  +22  комфорт  1021.3  990.5         
00:53 19.09 СВ  16 км    ясно  +20.0  +8.9  49  +21  +21  комфорт  1021.4  990.5         
01:53 19.09 В  16 км    ясно  +19.4  +8.3  49  +20  +20    1021.2  990.5         
02:53 19.09 В  16 км    ясно  +18.9  +8.9  52  +19  +19    1021.5  990.5         
03:53 19.09 В  16 км    ясно  +17.8  +10.0  60  +18  +18    1021.6  990.9         
04:53 19.09   16 км    ясно  +15.6  +10.6  72  +15  +15    1022.0  991.2  +15.6  +22.2     
05:53 19.09   16 км    ясно  +13.3  +10.6  84  +13  +13    1022.1  991.2         
06:53 19.09 В  16 км    ясно  +14.4  +10.6  78  +14  +14    1022.4  991.5         
07:53 19.09   16 км    ясно  +13.9  +10.6  80  +14  +14    1022.2  991.2         
08:53 19.09   16 км    ясно  +12.2  +10.0  86  +12  +12    1022.6  991.5         
09:53 19.09   16 км    ясно  +12.2  +10.0  86  +12  +12    1023.2  992.2         
10:53 19.09   16 км    ясно  +12.8  +10.6  86  +12  +12    1023.8  992.8  +11.7  +16.7     
11:53 19.09 В  16 км    ясно  +16.7  +11.7  72  +16  +17    1024.2  993.2         
12:53 19.09 ЮВ  16 км    ясно  +20.6  +10.6  53  +22  +24  комфорт  1024.2  993.2         
13:53 19.09 Ю  16 км    ясно  +22.2  +10.6  48  +24  +27  комфорт  1024.1  993.2         
14:53 19.09 нст  16 км    ясно  +23.9  +10.6  43  +25  +32  комфорт  1023.8  992.8         
15:53 19.09 ЮВ  16 км    ясно  +26.1  +11.1  39  +27  +34  жарко  1023.5  992.5         
16:53 19.09 В  4
{7} 
16 км    ясно  +26.7  +10.6  36  +27  +35  жарко  1022.9  991.8  +12.8  +27.2     
17:53 19.09 В  16 км    ясно  +27.8  +11.1  35  +29  +39  жарко  1022.6  991.5         
18:53 19.09 В  16 км    ясно  +27.8  +10.6  34  +28  +36  жарко  1022.0  991.2         
19:53 19.09 В  16 км    ясно  +27.8  +10.6  34  +28  +33  жарко  1021.6  990.9         
20:53 19.09 В  16 км    ясно  +27.2  +10.0  34  +28  +30  жарко  1021.7  990.9         
21:53 19.09 В  16 км    ясно  +25.6  +10.6  39  +27  +28  жарко  1021.8  990.9         
22:53 19.09 В  16 км    ясно  +22.8  +10.6  46  +25  +25  комфорт  1021.8  990.9  +22.8  +28.3     
23:53 19.09 В  16 км    ясно  +20.6  +10.6  53  +23  +23  комфорт  1022.1  990.9         
00:53 20.09 В  16 км    ясно  +18.3  +11.7  65  +19  +19    1022.0  991.2         
01:53 20.09 ЮВ  16 км    ясно  +17.2  +12.8  75  +18  +18    1022.6  991.5         
02:53 20.09   16 км    ясно  +16.1  +12.2  78  +16  +16    1022.6  991.5         
03:53 20.09 Ю  16 км    ясно  +18.3  +10.6  61  +19  +19    1022.6  991.8         

 

Местоположение метеостанции Mid-Ohio Valley Regional Airport: широта 39.3450 долгота -81.4392 высота над уровнем моря 262 м.

В архиве по умолчанию представлена погода в Паркерсбурге за последние 1-2 суток. Обновление информации о фактической погоде в базе происходит ежечасно! Архивные данные за месяц целиком и за предыдущие месяцы Вы можете получить, выбрав интересующий диапазон дат из раскрывающегося списка и нажав кнопку "Ввод!".

Внимание! Архив погоды МЕТАР в базе сайта в настоящее время начинается c 1 января 2011 г. Нет смысла пытаться выбрать более раннюю дату.

Внимание! Время в таблицах - всемирное. Для получения местного времени необходимо прибавить поправку, которая в Паркерсбурге равна -5 ч.

Ветер - указаны скорость ветра в м/с и направление, откуда дует ветер: С - северный, СВ - северо-восточный, В - восточный, ЮВ - юго-восточный, Ю - южный, ЮЗ - юго-западный, З - западный, СЗ - северо-западный.
Видимость - горизонтальная дальность видимости в метрах или километрах. При видимости от 1 до 10 км при отсутствии осадков обычно наблюдается дымка, при ухудшении видимости до 1 км и менее - туман. В сухую погоду видимость может ухудшаться дымом, пылью или мглою.
Атмосферные явления - указаны явления, наблюдавшиеся в указанный момент времени.
Облачность - указаны через наклонную черту верхняя и нижняя облачность в баллах и высота нижней границы облаков в метрах. Внимание: облачность, как и прочие метеорологические величины в США измеряются автоматическими метеостанциями. Указанные значения в баллах носят условный характер и показывают процент времени, в течение которого, в среднем, лазерный луч высотомера отражался от облаков обратно.
T - Температура воздуха - температура, измеренная на высоте 2 м над землей.
Td - Температура точки росы - температура, при понижении до которой содержащийся в воздухе водяной пар достигнет насыщения.
f - Относительная влажность воздуха - влажноcть воздуха, измеренная на высоте 2 м над землей.
Te - Эффективная температура - температура, которую ощущает одетый по сезону человек в тени. Характеристика душности погоды. При расчете учитывается влияние влажности воздуха и скорости ветра на теплоощущения человека.
Tes - Эффективная температура на солнце - температура, которую ощущает человек, с поправкой на солнечный нагрев. Характеристика знойности погоды. Зависит от высоты солнца над горизонтом, облачности и скорости ветра. Ночью, в пасмурную погоду, а также при ветре 12 м/с и более поправка равна нулю.
P - Атмосферное давление - приведенное к уровню моря атмосферное давление.
Po - Атмосферное давление - измеренное на уровне метеостанции атмосферное давление.
Tmin - Минимальная температура - минимум температуры воздуха на высоте 2 м над землей.
Tmax - Максимальная температура - максимум температуры воздуха на высоте 2 м над землей.
R - Количество осадков - Количество выпавших осадков за 3 или 6 часов, мм.
SD - Снежный покров - Высота снежного покрова, см.